Weather History for Big Delta, AK

Change the Weather History Date:

Friday, March 16, 2012

  Actual Average Record
Temperature  
Mean Temperature 7 °F -  
Max Temperature 16 °F 23 °F 42 °F (1998)
Min Temperature -2 °F 2 °F -31 °F (2007)
Degree Days  
Heating Degree Days 58    
Moisture  
Dew Point -4 °F    
Average Humidity 68    
Maximum Humidity 91    
Minimum Humidity 47    
Precipitation  
Precipitation 0.00 in - - ()
Sea Level Pressure  
Sea Level Pressure 29.48 in    
Wind  
Wind Speed 5 mph (West)    
Max Wind Speed 10 mph    
Max Gust Speed -    
Visibility 10 miles    
Events      
Averages and records for this station are not official NWS values.
T = Trace of Precipitation, MM = Missing Value Source: NWS Daily Summary

Daily Weather History Graph

Daily Weather History Graph

Search for Another Location

Airport:

Trip Planner

Search our weather history database for the weather conditions in past years. The results will help you decide how hot, cold, wet, or windy it might be!

Date:

Astronomy

Mar. 16, 2012 Rise Set
Actual Time 7:55 AM AKDT 7:48 PM AKDT
Civil Twilight 7:08 AM AKDT 8:36 PM AKDT
Nautical Twilight 6:11 AM AKDT 9:33 PM AKDT
Astronomical Twilight 5:08 AM AKDT 10:37 PM AKDT
Moon 6:18 AM AKDT (3/16) 12:25 PM AKDT (3/16)
Length of Visible Light 13h 28m
Length of Day
11h 53m
Waning Crescent, 31% of the Moon is Illuminated
Mar 16
Waning Crescent
Mar 22
New
Mar 30
First Quarter
Apr 6
Full
Apr 13
Last Quarter

Hourly Weather History & Observations

Time (AKDT) Temp. Windchill Dew Point Humidity Pressure Visibility Wind Dir Wind Speed Gust Speed Precip Events Conditions
12:53 AM 5.0 °F -2.1 °F 1.0 °F 84% 29.32 in 10.0 mi SW 3.5 mph - N/A   Clear
1:53 AM 1.9 °F -5.6 °F -0.9 °F 88% 29.33 in 10.0 mi WSW 3.5 mph - N/A   Clear
2:53 AM -0.0 °F -9.9 °F -2.9 °F 88% 29.35 in 10.0 mi SW 4.6 mph - N/A   Clear
3:53 AM -2.0 °F -13.9 °F -4.0 °F 91% 29.36 in 10.0 mi SW 5.8 mph - N/A   Clear
4:53 AM -2.0 °F -12.2 °F -5.1 °F 87% 29.37 in 10.0 mi SW 4.6 mph - N/A   Clear
5:53 AM -0.9 °F -12.7 °F -4.0 °F 87% 29.37 in 10.0 mi WSW 5.8 mph - N/A   Overcast
6:53 AM -0.9 °F -11.0 °F -5.1 °F 83% 29.39 in 10.0 mi WSW 4.6 mph - N/A   Mostly Cloudy
7:53 AM -0.9 °F -11.0 °F -5.1 °F 83% 29.41 in 10.0 mi WSW 4.6 mph - N/A   Mostly Cloudy
8:53 AM -0.9 °F -12.7 °F -6.0 °F 79% 29.43 in 10.0 mi WSW 5.8 mph - N/A   Scattered Clouds
9:53 AM 1.0 °F -10.3 °F -6.0 °F 72% 29.45 in 10.0 mi West 5.8 mph - N/A   Scattered Clouds
10:53 AM 3.9 °F -3.4 °F -5.1 °F 66% 29.47 in 10.0 mi West 3.5 mph - N/A   Scattered Clouds
11:53 AM 8.1 °F - -4.0 °F 58% 29.48 in 10.0 mi Calm Calm - N/A   Scattered Clouds
12:53 PM 12.0 °F - -2.0 °F 53% 29.49 in 10.0 mi Calm Calm - N/A   Scattered Clouds
1:53 PM 12.0 °F 5.9 °F -0.9 °F 56% 29.50 in 10.0 mi NNW 3.5 mph - N/A   Scattered Clouds
2:53 PM 14.0 °F 6.5 °F -2.0 °F 49% 29.51 in 10.0 mi NW 4.6 mph - N/A   Scattered Clouds
3:53 PM 16.0 °F 8.8 °F -0.9 °F 47% 29.52 in 10.0 mi West 4.6 mph - N/A   Scattered Clouds
4:53 PM 15.1 °F 4.2 °F -0.0 °F 51% 29.53 in 10.0 mi West 8.1 mph - N/A   Scattered Clouds
5:53 PM 15.1 °F 4.2 °F -0.9 °F 49% 29.54 in 10.0 mi West 8.1 mph - N/A   Scattered Clouds
6:53 PM 12.9 °F -0.2 °F -2.0 °F 51% 29.56 in 10.0 mi WNW 10.4 mph - N/A   Scattered Clouds
7:53 PM 9.0 °F -4.2 °F -2.9 °F 59% 29.59 in 10.0 mi West 9.2 mph - N/A   Scattered Clouds
8:53 PM 6.1 °F -6.8 °F -4.0 °F 63% 29.62 in 10.0 mi West 8.1 mph - N/A   Scattered Clouds
9:53 PM 3.9 °F -9.4 °F -5.1 °F 66% 29.63 in 10.0 mi West 8.1 mph - N/A   Clear
10:53 PM 1.9 °F -10.6 °F -8.0 °F 63% 29.65 in 10.0 mi West 6.9 mph - N/A   Clear
11:53 PM -0.0 °F -14.2 °F -9.0 °F 66% 29.66 in 10.0 mi West 8.1 mph - N/A   Clear